SCP
-0 -0 0 0 0 0 0 0 0 0 0 0 0 0 0 0 0 0 0 0 0 0 0 0 0 0 0 0 0 0 0 0 0 0 0 0 0 0 0 0 0 0 0 0
0 0 0 0 0 0 0 0 0 0 0 0 0 0 0 0 0 0 0 0 0 0 0 0 0 0 0 0 0 0 0 0 0 0 0 0 0 0 0 0 0 0 0 0
0 0 0 0 0 0 0 0 0 0 0 0 0 0 0 0 0 0 0 0 0 0 0 0 0 0 0 0 0 0 0 0 0 0 0 0 0 0 0 0 0 0 0 0
0 0 0 0 0 0 0 0 0 0 0 0 0 0 0 0 0 0 0 0 0 0 0 0 0 0 0 0 0 0 0 0 0 0 0 0 0 0 0 0 0 0 0 0
0 0 0 0 0 0 0 0 0 0 0 0 0 0 0 0 0 0 0 0 0 0 0 0 0 0 0 0 0 0 0 0 0 0 0 0 0 0 0 0 0 0 0 0
0 0 0 0 0 0 0 0 0 0 0 0 0 0 0 0 0 0 0 0 0 0 0 0 0 0 0 0 0 0 0 0 0 0 0 0 0 0 0 0 0 0 0 0
0 0 0 0 0 0 0 0 0 0 0 0 0 0 0 0 0 0 0 0 0 0 0 0 0 0 0 0 0 0 0 0 0 0 0 0 0 0 0 0 0 0 0 0
0 0 0 0 0 0 0 0 0 0 0 0 0 0 0 0 0 0 0 0 0 0 0 0 0 0 0 0 0 0 0 0 0 0 0 0 0 0 0 0 0 0 0 0
0 0 0 0 0 0 0 0 0 0 0 0 0 0 0 0 0 0 0 0 0 0 0 0 0 0 0 0 0 0 0 0 0 0 0 0 0 0 0 0 0 0 0 0
0 0 0 0 0 0 0 0 0 0 0 0 0 0 0 0 0 0 0 0 0 0 0 0 0 0 0 0 0 0 0 0 0 0 0 0 0 0 0 0 0 0 0 0
0 0 0 0 0 0 0 0 0 0 0 0 0 -0 0 0 0 0 0 0 0 0 0 0 0 0 0 0 0 0 0 0 0 0 0 0 0 0 0 0 0 0 0 0
0 0 0 0 0 0 0 0 0 0 0 0 0 0 0 0 -0 0 0 0 0 0 0 0 0 0 0 0 0 0 0 0 0 0 0 0 0 0 0 0 0 0 0 0
0 0 0 0 0 0 0 0 0 0 0 0 0 0 0 0 0 0 0 0 0 0 0 0 0 0 0 0 0 0 0 0 0 0 0 0 0 0 0 0 0 0 0 0
0 0 0 0 0 0 0 0 0 0 0 0 0 0 0 0 0 0 0 0 -0 0 0 0 0 0 0 0 0 0 0 0 0 0 0 0 0 0 0 0 -0 0 0 0
0 0 0 0 0 0 0 0 0 0 0 0 0 0 0 0 0 -0 0 0 0 0 0 0 0 0 0 0 0 0 0 0 0 0 -0 -0 -0 -0 0 0 -0 -0 0 -0
0 0 0 0 0 0 0 0 0 0 0 0 0 0 -0 0 0 0 0 0 0 0 0 0 0 0 0 0 0 -0 -0 0 -0 -0 -0 -0 -0 -0 -0 0 0 0 0 -0
0 0 0 0 0 0 0 0 0 0 0 0 0 0 0 0 0 -0 0 0 0 0 0 0 0 0 0 0 -0 -0 -0 -0 -0 0 0 -0 0 -0 -0 -0 -0 0 -0 -0
0 0 -0 -0 0 0 0 0 0 0 0 0 0 0 0 0 0 0 0 0 0 0 0 0 0 0 0 0 0 0 -0 -0 0 -0 0 -0 -0 -0 -0 0 0 -0 -0 -0
0 -0 -0 0 0 0 0 0 0 0 0 0 0 0 0 0 0 0 0 0 0 0 0 0 0 0 0 0 -0 -0 -0 0 0 -0 -0 -0 0 0 0 0 -0 0 0 0
0 0 0 0 0 0 0 0 0 0 0 0 0 0 0 0 0 0 0 0 0 0 0 0 0 0 -0 -0 -0 0 -0 -0 0 0 -0 -0 -0 -0 0 -0 0 0 0 -0
0 0 0 0 0 0 0 0 0 0 0 0 0 0 0 -0 0 0 0 0 -0 -0 -0 -0 0 0 0 -0 0 -0 0 0 -0 -0 0 -0 -0 -0 -0 -0 0 0 0 0
0 0 0 0 0 0 0 0 0 0 0 0 0 0 0 0 0 -0 -0 -0 -0 -0 -0 -0 0 -0 -0 -0 -0 -0 -0 -0 -0 -0 -0 -0 0 -0 -0 0 0 -0 0 -0
0 0 0 0 0 0 0 0 0 0 0 0 0 0 -0 -0 -0 -0 -0 -0 -0 0 -0 -0 -0 -0 -0 0 -0 -0 -0 -0 -0 -0 -0 -0 -0 0 0 -0 0 -0 -0 -0
0 0 0 0 0 0 0 0 -0 -0 0 0 0 -0 0 -0 -0 -0 -0 -0 -0 -0 -0 -0 -0 0 -0 -0 -0 -0 -0 -0 -0 -0 -0 -0 -0 -0 -0 -0 0 0 -0 -0
0 0 0 0 -0 0 0 0 0 0 0 0 0 0 -0 -0 -0 -0 -0 -0 0 -0 -0 0 0 -0 -0 0 -0 -0 -0 -0 -0 -0 0 0 0 0 -0 -0 0 0 -0 -0
0 0 0 -0 -0 -0 0 0 0 0 0 0 -0 -0 -0 -0 -0 -0 0 -0 -0 -0 -0 0 -0 -0 -0 0 0 0 0 0 -0 0 0 0 0 0 0 0 -0 0 0 -0
0 0 -0 -0 0 0 0 -0 0 0 0 0 0 0 -0 -0 -0 0 -0 -0 -0 0 0 -0 -0 -0 0 -0 -0 -0 0 -0 -0 -0 -0 -0 -0 -0 -0 0 0 0 0 0
Wind_Speed_500mb
65 65 60 60 63 61 45 14 14 11 17 22 7 12 11 9 19 12 20 17 26 26 25 26 24 23 13 2 19 22 32 19 30 40 46 29 19 29 4 6 21 17 27 43
64 63 58 53 53 54 56 27 24 12 18 11 7 17 23 19 21 18 10 18 17 19 21 15 19 19 12 18 26 9 21 12 25 24 10 14 19 23 23 30 24 38 32 31
59 60 58 50 44 40 34 17 10 5 6 2 11 19 23 12 12 21 26 21 27 26 29 28 24 28 19 20 24 18 11 28 37 33 38 39 45 46 43 34 15 34 43 62
52 53 53 51 40 32 21 10 9 8 11 16 24 23 25 31 25 15 17 17 24 23 29 31 35 40 27 37 53 51 27 37 42 47 49 49 54 51 53 50 51 45 51 55
51 48 47 47 38 24 7 14 16 19 42 40 27 18 21 26 24 23 27 27 31 33 34 39 43 46 42 40 37 40 21 35 37 50 47 50 58 52 56 56 53 52 52 44
48 45 43 40 37 21 12 14 16 20 22 28 21 23 23 20 28 32 23 29 31 35 39 48 55 59 63 52 46 43 35 27 13 35 43 44 38 47 24 25 24 30 32 35
46 42 37 34 29 19 12 19 20 22 22 24 23 29 32 34 39 39 42 41 39 50 48 52 58 66 73 69 59 63 50 39 15 15 19 29 33 17 35 45 33 32 37 35
41 39 35 28 25 22 15 17 17 21 18 29 34 35 34 41 45 38 42 41 38 26 33 32 27 23 36 37 53 46 47 36 11 8 20 43 51 45 15 28 30 35 40 26
39 37 35 29 23 23 21 16 22 18 15 22 20 29 37 29 32 31 23 19 33 42 26 14 23 16 29 13 6 6 15 22 16 9 16 22 9 24 32 16 26 17 20 30
37 35 34 32 25 22 23 24 24 28 29 50 44 32 27 38 35 24 42 31 32 23 14 18 19 27 29 24 29 24 11 12 27 25 19 26 30 25 6 20 15 36 55 51
34 32 31 30 28 25 23 27 26 32 44 60 63 68 61 49 49 29 37 17 22 20 16 18 25 23 15 18 35 28 30 25 15 19 21 30 19 26 20 27 68 63 64 63
34 32 31 31 30 28 24 34 22 30 46 53 57 63 68 73 66 53 29 29 31 9 11 10 8 17 16 33 33 33 33 24 26 37 32 48 52 50 58 47 55 60 64 46
35 33 32 32 30 29 28 32 35 37 50 60 62 52 34 44 50 50 62 61 59 57 49 28 15 25 21 27 26 39 41 50 32 43 51 47 49 58 73 66 57 54 56 48
36 35 33 31 32 33 36 35 33 34 28 20 32 18 30 23 33 47 51 61 57 44 36 31 10 8 26 27 38 39 41 47 46 55 49 53 57 59 65 63 50 61 58 51
38 35 33 34 35 37 40 44 45 39 42 37 64 67 76 30 34 62 55 59 53 43 27 13 12 11 22 34 32 37 45 44 32 37 62 56 67 68 71 64 53 55 49 54
37 36 37 37 34 31 30 22 5 27 42 15 8 21 65 59 51 58 55 45 53 54 20 13 16 35 14 12 21 57 64 65 64 51 68 71 79 59 61 45 47 46 48 50
34 39 40 35 32 29 26 16 5 13 8 13 16 17 7 9 16 23 40 48 40 38 35 15 17 17 24 8 32 72 79 77 54 59 51 40 51 52 54 51 46 47 46 47
39 43 39 40 46 45 54 56 41 34 23 18 9 14 38 13 21 30 10 15 22 18 19 13 18 20 13 11 26 48 58 58 54 42 53 61 56 34 35 39 42 44 47 52
42 41 43 38 23 19 18 22 25 30 34 11 13 17 16 12 17 18 28 19 11 18 9 11 11 8 11 16 35 35 36 28 39 39 33 26 28 32 34 38 38 46 51 52
36 31 13 11 8 18 22 18 13 23 25 22 10 25 23 40 41 11 8 12 11 8 17 15 9 3 14 36 35 34 31 29 29 31 30 33 32 33 36 39 41 42 49 51
18 10 17 21 28 18 14 12 16 19 10 18 26 44 29 32 14 11 11 7 8 8 5 11 6 3 13 28 34 15 32 21 21 21 20 23 25 31 38 42 42 43 43 44
21 29 38 24 9 14 10 9 10 11 9 10 9 11 9 9 10 9 8 8 8 10 13 4 3 2 20 27 30 15 16 15 20 22 23 25 28 30 32 36 41 42 39 36
25 10 9 9 12 10 12 18 12 5 15 15 20 13 6 6 13 11 5 7 10 25 5 4 4 36 39 33 17 18 9 12 20 21 23 25 29 32 37 41 45 45 47 42
11 9 9 9 11 12 6 7 2 2 8 9 18 24 12 13 7 6 6 6 8 6 2 10 15 53 43 21 9 13 14 15 18 19 22 25 31 35 37 43 50 60 64 57
10 9 9 15 23 16 9 1 15 6 10 14 17 24 24 9 8 3 5 6 8 7 11 9 45 55 34 7 8 12 16 15 15 14 20 22 24 29 34 37 40 45 53 61
10 15 19 27 22 19 3 8 25 9 14 25 23 11 8 10 5 6 10 9 6 7 11 41 65 44 10 7 12 15 15 14 13 12 14 21 25 28 32 35 42 45 45 49
12 17 30 35 35 31 29 20 15 13 15 14 8 8 5 6 6 4 7 6 9 24 33 59 51 40 9 11 13 13 13 13 13 13 14 13 16 25 30 36 40 42 44 47
Wind_Direction_500mb
341 343 348 348 347 347 358 342 290 325 333 259 219 290 14 346 291 244 254 280 275 279 295 288 280 273 258 291 314 292 291 293 288 283 282 271 268 275 245 206 279 263 286 282
337 339 344 350 350 351 349 317 292 285 336 287 284 332 293 251 280 277 271 273 277 291 284 286 271 272 298 289 296 299 351 271 302 295 186 161 237 232 237 279 282 261 280 277
335 336 339 347 351 348 345 308 302 276 321 349 325 325 292 281 219 282 270 274 289 278 273 258 260 254 266 268 249 264 269 264 258 264 276 294 289 279 274 267 227 259 258 279
332 334 335 338 349 353 345 283 346 347 302 312 326 291 286 289 284 216 265 279 256 287 290 282 280 281 267 289 288 274 234 254 264 274 281 283 286 290 283 272 265 264 279 277
326 330 331 331 343 356 338 314 339 325 290 284 281 264 270 293 293 295 274 284 286 293 287 290 287 285 290 293 282 277 228 254 277 276 290 290 277 273 269 272 273 270 273 288
320 324 325 328 334 7 317 315 295 278 289 280 268 277 295 296 306 293 278 288 289 285 292 299 293 288 283 273 274 274 262 257 262 269 282 297 288 275 286 312 299 287 273 285
316 318 322 322 323 331 319 302 303 278 278 279 280 292 290 290 289 291 293 287 283 286 299 300 289 276 269 260 252 247 254 256 254 278 298 267 264 279 302 289 262 283 286 283
311 314 317 317 310 301 311 295 287 289 275 279 286 284 288 297 289 276 285 287 291 310 305 297 302 281 261 254 229 235 225 235 222 236 255 272 288 290 312 330 308 305 290 296
310 311 309 311 305 287 288 286 280 262 283 235 324 304 296 294 290 286 294 301 315 302 288 285 260 285 322 279 259 191 250 231 198 201 260 267 266 292 296 285 293 30 338 302
307 307 307 307 302 288 277 277 271 264 261 269 271 267 297 302 291 284 286 304 306 271 235 238 264 258 250 268 281 275 233 242 227 228 252 263 273 292 245 249 273 317 310 319
303 304 305 306 306 295 291 274 269 271 272 273 275 273 273 274 265 268 293 321 234 232 245 257 268 287 293 285 277 288 289 281 249 236 256 266 37 331 237 327 316 312 306 296
302 302 302 302 301 298 289 286 276 273 275 270 275 271 266 266 263 265 265 247 286 307 285 286 347 296 304 289 285 288 280 271 282 281 282 295 283 247 270 277 302 313 309 308
299 298 299 299 301 302 294 277 282 285 285 289 270 267 267 269 252 249 247 252 251 254 271 301 292 279 282 277 281 297 291 291 294 297 286 285 295 291 293 298 317 294 300 312
299 301 298 300 301 295 288 284 273 268 275 282 292 287 272 278 259 241 237 247 263 271 262 254 239 237 264 276 290 293 292 302 288 282 283 296 302 297 298 302 299 306 298 305
300 299 299 296 295 295 299 286 269 250 240 283 299 298 290 279 263 237 247 247 243 247 251 232 248 247 278 272 282 272 276 278 281 284 296 304 297 296 299 301 306 300 306 306
305 299 296 297 301 309 322 303 127 210 229 261 280 287 280 277 268 255 250 238 232 233 228 231 241 246 242 273 267 273 280 286 287 292 289 283 291 290 304 314 321 311 308 304
306 304 297 293 291 285 256 254 146 170 284 268 284 302 320 264 215 229 236 236 224 221 229 220 240 246 216 248 263 289 297 290 303 306 307 312 290 290 297 311 310 313 305 300
301 300 299 292 289 279 268 271 273 239 265 264 273 277 274 237 243 265 249 255 238 228 237 230 232 245 218 256 279 316 317 318 318 313 314 304 293 303 312 317 321 312 306 308
303 306 306 298 267 244 258 250 260 215 214 237 236 254 291 289 291 300 296 282 263 244 213 221 229 188 225 308 305 312 325 323 310 311 309 308 312 325 329 325 323 319 315 316
314 310 284 249 219 267 296 258 225 205 198 232 251 245 265 278 300 314 264 240 239 242 221 185 192 171 322 326 310 307 314 314 327 346 352 348 341 334 329 330 327 322 320 319
295 287 276 316 314 299 244 247 207 186 216 211 241 243 248 260 256 280 264 276 262 255 213 193 135 143 328 329 320 315 324 338 349 353 352 351 343 338 339 341 344 341 334 329
284 294 295 290 251 234 236 251 228 209 248 190 230 238 231 256 222 246 284 268 309 263 358 270 83 324 305 328 335 327 323 350 360 4 2 0 2 2 6 7 3 3 1 0
295 242 250 240 236 243 230 231 210 332 345 347 328 304 251 243 219 235 246 251 245 312 247 118 59 3 346 334 323 316 351 9 13 11 14 20 26 32 33 33 34 32 35 39
251 228 247 253 221 233 279 335 215 305 280 350 332 312 286 233 238 258 262 286 297 256 292 33 357 347 335 332 322 329 9 18 22 21 25 35 46 50 47 43 43 44 46 52
265 247 244 238 265 281 234 221 287 264 276 310 294 273 248 282 267 231 285 250 261 22 9 349 351 341 343 5 331 19 17 19 31 28 34 43 47 46 42 39 39 43 48 49
251 240 254 270 272 279 53 274 285 322 326 306 265 257 242 226 231 231 219 292 351 10 6 359 342 344 22 9 38 29 21 25 38 43 45 44 49 50 49 46 45 44 45 49
232 244 249 263 279 289 288 283 285 300 301 289 307 274 293 272 232 313 354 18 1 12 7 353 345 347 352 37 33 24 21 29 40 46 48 51 39 38 43 43 43 42 45 52
Wind_Speed_850mb
65 65 60 60 63 61 45 14 14 11 17 22 7 12 11 9 19 12 20 17 26 26 25 26 24 23 13 2 19 22 32 19 30 40 46 29 19 29 4 6 21 17 27 43
64 63 58 53 53 54 56 27 24 12 18 11 7 17 23 19 21 18 10 18 17 19 21 15 19 19 12 18 26 9 21 12 25 24 10 14 19 23 23 30 24 38 32 31
59 60 58 50 44 40 34 17 10 5 6 2 11 19 23 12 12 21 26 21 27 26 29 28 24 28 19 20 24 18 11 28 37 33 38 39 45 46 43 34 15 34 43 62
52 53 53 51 40 32 21 10 9 8 11 16 24 23 25 31 25 15 17 17 24 23 29 31 35 40 27 37 53 51 27 37 42 47 49 49 54 51 53 50 51 45 51 55
51 48 47 47 38 24 7 14 16 19 42 40 27 18 21 26 24 23 27 27 31 33 34 39 43 46 42 40 37 40 21 35 37 50 47 50 58 52 56 56 53 52 52 44
48 45 43 40 37 21 12 14 16 20 22 28 21 23 23 20 28 32 23 29 31 35 39 48 55 59 63 52 46 43 35 27 13 35 43 44 38 47 24 25 24 30 32 35
46 42 37 34 29 19 12 19 20 22 22 24 23 29 32 34 39 39 42 41 39 50 48 52 58 66 73 69 59 63 50 39 15 15 19 29 33 17 35 45 33 32 37 35
41 39 35 28 25 22 15 17 17 21 18 29 34 35 34 41 45 38 42 41 38 26 33 32 27 23 36 37 53 46 47 36 11 8 20 43 51 45 15 28 30 35 40 26
39 37 35 29 23 23 21 16 22 18 15 22 20 29 37 29 32 31 23 19 33 42 26 14 23 16 29 13 6 6 15 22 16 9 16 22 9 24 32 16 26 17 20 30
37 35 34 32 25 22 23 24 24 28 29 50 44 32 27 38 35 24 42 31 32 23 14 18 19 27 29 24 29 24 11 12 27 25 19 26 30 25 6 20 15 36 55 51
34 32 31 30 28 25 23 27 26 32 44 60 63 68 61 49 49 29 37 17 22 20 16 18 25 23 15 18 35 28 30 25 15 19 21 30 19 26 20 27 68 63 64 63
34 32 31 31 30 28 24 34 22 30 46 53 57 63 68 73 66 53 29 29 31 9 11 10 8 17 16 33 33 33 33 24 26 37 32 48 52 50 58 47 55 60 64 46
35 33 32 32 30 29 28 32 35 37 50 60 62 52 34 44 50 50 62 61 59 57 49 28 15 25 21 27 26 39 41 50 32 43 51 47 49 58 73 66 57 54 56 48
36 35 33 31 32 33 36 35 33 34 28 20 32 18 30 23 33 47 51 61 57 44 36 31 10 8 26 27 38 39 41 47 46 55 49 53 57 59 65 63 50 61 58 51
38 35 33 34 35 37 40 44 45 39 42 37 64 67 76 30 34 62 55 59 53 43 27 13 12 11 22 34 32 37 45 44 32 37 62 56 67 68 71 64 53 55 49 54
37 36 37 37 34 31 30 22 5 27 42 15 8 21 65 59 51 58 55 45 53 54 20 13 16 35 14 12 21 57 64 65 64 51 68 71 79 59 61 45 47 46 48 50
34 39 40 35 32 29 26 16 5 13 8 13 16 17 7 9 16 23 40 48 40 38 35 15 17 17 24 8 32 72 79 77 54 59 51 40 51 52 54 51 46 47 46 47
39 43 39 40 46 45 54 56 41 34 23 18 9 14 38 13 21 30 10 15 22 18 19 13 18 20 13 11 26 48 58 58 54 42 53 61 56 34 35 39 42 44 47 52
42 41 43 38 23 19 18 22 25 30 34 11 13 17 16 12 17 18 28 19 11 18 9 11 11 8 11 16 35 35 36 28 39 39 33 26 28 32 34 38 38 46 51 52
36 31 13 11 8 18 22 18 13 23 25 22 10 25 23 40 41 11 8 12 11 8 17 15 9 3 14 36 35 34 31 29 29 31 30 33 32 33 36 39 41 42 49 51
18 10 17 21 28 18 14 12 16 19 10 18 26 44 29 32 14 11 11 7 8 8 5 11 6 3 13 28 34 15 32 21 21 21 20 23 25 31 38 42 42 43 43 44
21 29 38 24 9 14 10 9 10 11 9 10 9 11 9 9 10 9 8 8 8 10 13 4 3 2 20 27 30 15 16 15 20 22 23 25 28 30 32 36 41 42 39 36
25 10 9 9 12 10 12 18 12 5 15 15 20 13 6 6 13 11 5 7 10 25 5 4 4 36 39 33 17 18 9 12 20 21 23 25 29 32 37 41 45 45 47 42
11 9 9 9 11 12 6 7 2 2 8 9 18 24 12 13 7 6 6 6 8 6 2 10 15 53 43 21 9 13 14 15 18 19 22 25 31 35 37 43 50 60 64 57
10 9 9 15 23 16 9 1 15 6 10 14 17 24 24 9 8 3 5 6 8 7 11 9 45 55 34 7 8 12 16 15 15 14 20 22 24 29 34 37 40 45 53 61
10 15 19 27 22 19 3 8 25 9 14 25 23 11 8 10 5 6 10 9 6 7 11 41 65 44 10 7 12 15 15 14 13 12 14 21 25 28 32 35 42 45 45 49
12 17 30 35 35 31 29 20 15 13 15 14 8 8 5 6 6 4 7 6 9 24 33 59 51 40 9 11 13 13 13 13 13 13 14 13 16 25 30 36 40 42 44 47
Wind_Direction_850mb
341 343 348 348 347 347 358 342 290 325 333 259 219 290 14 346 291 244 254 280 275 279 295 288 280 273 258 291 314 292 291 293 288 283 282 271 268 275 245 206 279 263 286 282
337 339 344 350 350 351 349 317 292 285 336 287 284 332 293 251 280 277 271 273 277 291 284 286 271 272 298 289 296 299 351 271 302 295 186 161 237 232 237 279 282 261 280 277
335 336 339 347 351 348 345 308 302 276 321 349 325 325 292 281 219 282 270 274 289 278 273 258 260 254 266 268 249 264 269 264 258 264 276 294 289 279 274 267 227 259 258 279
332 334 335 338 349 353 345 283 346 347 302 312 326 291 286 289 284 216 265 279 256 287 290 282 280 281 267 289 288 274 234 254 264 274 281 283 286 290 283 272 265 264 279 277
326 330 331 331 343 356 338 314 339 325 290 284 281 264 270 293 293 295 274 284 286 293 287 290 287 285 290 293 282 277 228 254 277 276 290 290 277 273 269 272 273 270 273 288
320 324 325 328 334 7 317 315 295 278 289 280 268 277 295 296 306 293 278 288 289 285 292 299 293 288 283 273 274 274 262 257 262 269 282 297 288 275 286 312 299 287 273 285
316 318 322 322 323 331 319 302 303 278 278 279 280 292 290 290 289 291 293 287 283 286 299 300 289 276 269 260 252 247 254 256 254 278 298 267 264 279 302 289 262 283 286 283
311 314 317 317 310 301 311 295 287 289 275 279 286 284 288 297 289 276 285 287 291 310 305 297 302 281 261 254 229 235 225 235 222 236 255 272 288 290 312 330 308 305 290 296
310 311 309 311 305 287 288 286 280 262 283 235 324 304 296 294 290 286 294 301 315 302 288 285 260 285 322 279 259 191 250 231 198 201 260 267 266 292 296 285 293 30 338 302
307 307 307 307 302 288 277 277 271 264 261 269 271 267 297 302 291 284 286 304 306 271 235 238 264 258 250 268 281 275 233 242 227 228 252 263 273 292 245 249 273 317 310 319
303 304 305 306 306 295 291 274 269 271 272 273 275 273 273 274 265 268 293 321 234 232 245 257 268 287 293 285 277 288 289 281 249 236 256 266 37 331 237 327 316 312 306 296
302 302 302 302 301 298 289 286 276 273 275 270 275 271 266 266 263 265 265 247 286 307 285 286 347 296 304 289 285 288 280 271 282 281 282 295 283 247 270 277 302 313 309 308
299 298 299 299 301 302 294 277 282 285 285 289 270 267 267 269 252 249 247 252 251 254 271 301 292 279 282 277 281 297 291 291 294 297 286 285 295 291 293 298 317 294 300 312
299 301 298 300 301 295 288 284 273 268 275 282 292 287 272 278 259 241 237 247 263 271 262 254 239 237 264 276 290 293 292 302 288 282 283 296 302 297 298 302 299 306 298 305
300 299 299 296 295 295 299 286 269 250 240 283 299 298 290 279 263 237 247 247 243 247 251 232 248 247 278 272 282 272 276 278 281 284 296 304 297 296 299 301 306 300 306 306
305 299 296 297 301 309 322 303 127 210 229 261 280 287 280 277 268 255 250 238 232 233 228 231 241 246 242 273 267 273 280 286 287 292 289 283 291 290 304 314 321 311 308 304
306 304 297 293 291 285 256 254 146 170 284 268 284 302 320 264 215 229 236 236 224 221 229 220 240 246 216 248 263 289 297 290 303 306 307 312 290 290 297 311 310 313 305 300
301 300 299 292 289 279 268 271 273 239 265 264 273 277 274 237 243 265 249 255 238 228 237 230 232 245 218 256 279 316 317 318 318 313 314 304 293 303 312 317 321 312 306 308
303 306 306 298 267 244 258 250 260 215 214 237 236 254 291 289 291 300 296 282 263 244 213 221 229 188 225 308 305 312 325 323 310 311 309 308 312 325 329 325 323 319 315 316
314 310 284 249 219 267 296 258 225 205 198 232 251 245 265 278 300 314 264 240 239 242 221 185 192 171 322 326 310 307 314 314 327 346 352 348 341 334 329 330 327 322 320 319
295 287 276 316 314 299 244 247 207 186 216 211 241 243 248 260 256 280 264 276 262 255 213 193 135 143 328 329 320 315 324 338 349 353 352 351 343 338 339 341 344 341 334 329
284 294 295 290 251 234 236 251 228 209 248 190 230 238 231 256 222 246 284 268 309 263 358 270 83 324 305 328 335 327 323 350 360 4 2 0 2 2 6 7 3 3 1 0
295 242 250 240 236 243 230 231 210 332 345 347 328 304 251 243 219 235 246 251 245 312 247 118 59 3 346 334 323 316 351 9 13 11 14 20 26 32 33 33 34 32 35 39
251 228 247 253 221 233 279 335 215 305 280 350 332 312 286 233 238 258 262 286 297 256 292 33 357 347 335 332 322 329 9 18 22 21 25 35 46 50 47 43 43 44 46 52
265 247 244 238 265 281 234 221 287 264 276 310 294 273 248 282 267 231 285 250 261 22 9 349 351 341 343 5 331 19 17 19 31 28 34 43 47 46 42 39 39 43 48 49
251 240 254 270 272 279 53 274 285 322 326 306 265 257 242 226 231 231 219 292 351 10 6 359 342 344 22 9 38 29 21 25 38 43 45 44 49 50 49 46 45 44 45 49
232 244 249 263 279 289 288 283 285 300 301 289 307 274 293 272 232 313 354 18 1 12 7 353 345 347 352 37 33 24 21 29 40 46 48 51 39 38 43 43 43 42 45 52